User: anonymous   Login
Location: Unspecified
(0.0000°N, 0.0000°E)
Time: 04:11:50
(UTC+00:00)
Language:

STARLINK-5431 - Orbit

View from above orbital plane
View from above orbital plane
View from above satellite
View from above satellite

Ground track
Ground track

The orbit is defined by the following mean orbital elements,

1 54792U          26145.45883897 +.00000000 +00000-0 +39482-3 0 00009
2 54792  53.2125  59.1297 0001541  98.2003 261.9164 15.08806100    01
Epoch (UTC): 25 May 2026 11:00:43
Eccentricity: 0.0001541
inclination: 53.2125°
perigee height: 539 km
apogee height: 541 km
right ascension of ascending node: 59.1297°
argument of perigee: 98.2003°
revolutions per day: 15.08806100
mean anomaly at epoch: 261.9164°

The dashed part of the orbit path shows where the satellite is in the earth's shadow,  

DLR